Starlink 35520

operational
NORAD ID: 66133 Int'l Des: 2025-237 Owner: SPXS Country: US Constellation: starlink
LEOCIRCULAR

About Starlink 35520

Description loading...

Live Position

Loading 3D Globe...

Upcoming Passes

Altitude History

Altitude vs Time

uPlot chart will show altitude changes over time

Two-Line Element Set

1 66133C 25237V 25298.72826389 -.01196300 00000+0 -18896-2 0 2986
2 66133 53.1547 319.2198 0000728 76.1703 152.3266 16.04327405 18
Epoch: Oct 25, 2025 • Age: 141 hours

Current Status

Altitude 289.1 km
Velocity 7.73 km/s
Sub-Earth Point -5.27°S, 65.49°W
Launch Date Oct 22, 2025
Age 8 days
Type internet

Technical Details

Classification Payload
Mass 575.00 kg
Dry Mass 530.00 kg
Total Mass 575.00 kg
Length 0.30 m
Diameter 4.10 m
Span 29.00 m
Shape Box + pan
Manufacturer SPXS
Bus Type Starlink V2MO
Phase Status In Orbit
Owner/State SPXS/US

Large Constellations

Loading constellations...